West Memphis, AR

5:00 AM CDT on August 18, 2017 (GMT -0500)
West Memphis Municipal

Weather History for KAWM - January, 2014

Change the Weather History Date:

Friday, January 24, 2014

  Actual Average Record
Temperature  
Mean Temperature 19 °F -  
Max Temperature 30 °F 51 °F 76 °F (1972)
Min Temperature 8 °F 34 °F 2 °F (1963)
Degree Days  
Heating Degree Days 46    
Moisture  
Dew Point 4 °F    
Average Humidity 52    
Maximum Humidity 81    
Minimum Humidity 33    
Precipitation  
Precipitation 0.00 in - - ()
Sea Level Pressure  
Sea Level Pressure 30.53 in    
Wind  
Wind Speed 5 mph (SSW)    
Max Wind Speed 16 mph    
Max Gust Speed 24 mph    
Visibility 10 miles    
Events      
Averages and records for this station are not official NWS values.
T = Trace of Precipitation, MM = Missing Value Source: NWS Daily Summary

Daily Weather History Graph

Daily Weather History Graph

Search for Another Location

Airport or City:

Trip Planner

Search our weather history database for the weather conditions in past years. The results will help you decide how hot, cold, wet, or windy it might be!

Date:

Astronomy

Jan. 24, 2014 Rise Set
Actual Time 7:05 AM CST 5:21 PM CST
Civil Twilight 6:38 AM CST 5:48 PM CST
Nautical Twilight 6:07 AM CST 6:19 PM CST
Astronomical Twilight 5:37 AM CST 6:49 PM CST
Moon 12:35 AM CST (1/24) 11:37 AM CST (1/24)
Length of Visible Light 11h 10m
Length of Day
10h 16m
Last Quarter, 44% of the Moon is Illuminated
Jan 24
Last Quarter
Jan 30
New
Feb 6
First Quarter
Feb 14
Full
Feb 22
Last Quarter

Hourly Weather History & Observations

Time (CST) Temp. Windchill Dew Point Humidity Pressure Visibility Wind Dir Wind Speed Gust Speed Precip Events Conditions
12:53 AM 12.0 °F 4.1 °F -0.0 °F 59% 30.79 in 10.0 mi NNE 4.6 mph - N/A   Clear
1:53 AM 10.9 °F - 1.9 °F 67% 30.79 in 10.0 mi Calm Calm - N/A   Clear
2:53 AM 10.9 °F - 1.0 °F 64% 30.79 in 10.0 mi Calm Calm - N/A   Clear
3:53 AM 10.0 °F - 3.0 °F 73% 30.77 in 10.0 mi Calm Calm - N/A   Clear
4:53 AM 9.0 °F - 3.0 °F 77% 30.75 in 10.0 mi Calm Calm - N/A   Clear
5:53 AM 9.0 °F - 3.9 °F 80% 30.74 in 10.0 mi Calm Calm - N/A   Clear
6:53 AM 8.1 °F - 1.9 °F 76% 30.74 in 10.0 mi Calm Calm - N/A   Clear
7:53 AM 10.9 °F - 6.1 °F 81% 30.73 in 10.0 mi Calm Calm - N/A   Clear
8:53 AM 16.0 °F 7.4 °F 3.9 °F 59% 30.71 in 10.0 mi SSE 5.8 mph - N/A   Clear
9:53 AM 18.0 °F 8.7 °F -0.0 °F 45% 30.69 in 10.0 mi South 6.9 mph - N/A   Clear
10:53 AM 21.0 °F 13.4 °F -0.0 °F 40% 30.68 in 10.0 mi SSW 5.8 mph - N/A   Clear
11:53 AM 24.1 °F 16.0 °F -0.0 °F 35% 30.63 in 10.0 mi Variable 6.9 mph - N/A   Clear
12:53 PM 26.1 °F 16.8 °F 1.9 °F 35% 30.56 in 10.0 mi SSW 9.2 mph 16.1 mph N/A   Clear
1:53 PM 28.0 °F 21.7 °F 3.0 °F 34% 30.50 in 10.0 mi SW 5.8 mph - N/A   Clear
2:53 PM 30.0 °F 20.5 °F 3.9 °F 33% 30.43 in 10.0 mi South 11.5 mph - N/A   Clear
3:53 PM 30.0 °F 19.1 °F 5.0 °F 35% 30.38 in 10.0 mi SSW 15.0 mph 23.0 mph N/A   Clear
4:53 PM 28.9 °F 19.2 °F 3.9 °F 35% 30.37 in 10.0 mi SSW 11.5 mph - N/A   Clear
5:53 PM 27.0 °F 18.0 °F 5.0 °F 39% 30.33 in 10.0 mi SSW 9.2 mph - N/A   Clear
6:53 PM 26.1 °F 14.5 °F 8.1 °F 47% 30.31 in 10.0 mi SSW 13.8 mph - N/A   Clear
7:53 PM 26.1 °F 15.0 °F 8.1 °F 47% 30.28 in 10.0 mi SSW 12.7 mph 19.6 mph N/A   Clear
8:53 PM 26.1 °F 13.6 °F 7.0 °F 44% 30.25 in 10.0 mi SSW 16.1 mph 24.2 mph N/A   Clear
9:53 PM 26.1 °F 13.6 °F 8.1 °F 47% 30.19 in 10.0 mi SSW 16.1 mph - N/A   Clear
10:53 PM 27.0 °F 16.1 °F 8.1 °F 45% 30.18 in 10.0 mi SSW 12.7 mph 19.6 mph N/A   Clear
11:53 PM 28.0 °F 20.0 °F 9.0 °F 45% 30.15 in 10.0 mi SSW 8.1 mph 18.4 mph N/A   Mostly Cloudy